GW0422 Weather Reports


Display with metric or nautical units.
time (UTC)temp
F
wind
direction
speed
MPH
gust
MPH
rain 1hr
in
rain 24hr
in
rain mn
in
humidity
%
barometer
mb
20260506013401 0 21 0.0 1.0 0.00 0.00 0.00 1015.9
20260506012857 0 21 0.0 1.0 0.00 0.00 0.00 1015.8
20260506011900 0 21 0.0 1.0 0.00 0.00 0.00 1016.0
20260506010907 0 21 0.0 3.0 0.00 0.00 0.00 1016.0
20260506005416 0 350 0.0 2.0 0.00 0.00 0.00 1016.1
20260506004415 0 350 0.0 2.0 0.00 0.00 0.00 1016.0
20260506003901 0 350 0.0 3.0 0.00 0.00 0.00 1016.1
20260506002905 0 350 0.0 4.0 0.00 0.00 0.00 1016.1
20260506001906 0 350 1.0 5.0 0.00 0.00 0.00 1016.2
20260506000915 0 13 2.0 5.0 0.00 0.00 0.00 1016.2
20260506000357 0 53 2.0 4.0 0.00 0.00 0.00 1016.3
20260505235400 0 12 0.0 6.0 0.00 0.00 0.00 1016.3
20260505234402 0 33 1.0 4.0 0.00 0.00 0.00 1016.2
20260505233403 0 37 1.0 6.0 0.00 0.00 0.00 1016.1
20260505232902 0 12 3.0 6.0 0.00 0.00 0.00 1016.2
20260505231904 0 33 0.0 7.0 0.00 0.00 0.00 1016.2
20260505230905 0 60 2.0 6.0 0.00 0.00 0.00 1016.2
20260505225921 0 85 1.0 6.0 0.00 0.00 0.00 1016.2
20260505224912 0 43 0.0 5.0 0.00 0.00 0.00 1016.2
20260505223913 0 39 3.0 5.0 0.00 0.00 0.00 1016.4
20260505222917 0 38 1.0 5.0 0.00 0.00 0.00 1016.3
20260505222358 0 21 2.0 8.0 0.00 0.00 0.00 1016.3
20260505221405 0 50 2.0 8.0 0.00 0.00 0.00 1016.3
20260505220416 0 60 2.0 6.0 0.00 0.00 0.00 1016.2
20260505215416 0 21 0.0 5.0 0.00 0.00 0.00 1016.2
20260505214418 0 31 0.0 3.0 0.00 0.00 0.00 1016.1
20260505213404 0 19 1.0 10.0 0.00 0.00 0.00 1016.1
20260505212403 0 17 2.0 5.0 0.00 0.00 0.00 1016.1
20260505211405 0 8 2.0 6.0 0.00 0.00 0.00 1016.3
20260505210407 0 17 2.0 5.0 0.00 0.00 0.00 1016.2
20260505205411 0 33 2.0 8.0 0.00 0.00 0.00 1016.2
20260505204411 0 31 1.0 5.0 0.00 0.00 0.00 1016.2
20260505203420 0 41 2.0 8.0 0.00 0.00 0.00 1016.2
20260505202917 0 17 2.0 8.0 0.00 0.00 0.00 1016.2
20260505202418 0 345 2.0 6.0 0.00 0.00 0.00 1016.2
20260505201417 0 43 2.0 9.0 0.00 0.00 0.00 1016.1
20260505200401 0 345 2.0 9.0 0.00 0.00 0.00 1015.9
20260505194908 0 32 4.0 10.0 0.00 0.00 0.00 1015.7
20260505193916 0 360 4.0 9.0 0.00 0.00 0.00 1015.6
20260505192919 0 50 3.0 8.0 0.00 0.00 0.00 1015.6
20260505191905 0 37 4.0 10.0 0.00 0.00 0.00 1015.6
20260505190908 0 19 1.0 11.0 0.00 0.00 0.00 1015.6
20260505185908 0 34 3.0 12.0 0.00 0.00 0.00 1015.5
20260505184911 0 23 3.0 14.0 0.00 0.00 0.00 1015.4
20260505183918 0 89 3.0 10.0 0.00 0.00 0.00 1015.4
20260505183358 0 35 3.0 15.0 0.00 0.00 0.00 1015.4
20260505182402 0 343 6.0 12.0 0.00 0.00 0.00 1015.4
20260505181404 0 15 5.0 14.0 0.00 0.00 0.00 1015.3
20260505180406 0 62 5.0 12.0 0.00 0.00 0.00 1015.1
20260505175408 0 63 3.0 15.0 0.00 0.00 0.00 1015.1
20260505174411 0 29 4.0 13.0 0.00 0.00 0.00 1015.0
20260505173413 0 22 2.0 14.0 0.00 0.00 0.00 1015.0
20260505172419 0 23 4.0 13.0 0.00 0.00 0.00 1015.1
20260505171404 0 316 4.0 15.0 0.00 0.00 0.00 1015.2
20260505170406 0 23 4.0 10.0 0.00 0.00 0.00 1015.1
20260505165406 0 33 5.0 12.0 0.00 0.00 0.00 1015.1
20260505164408 0 350 3.0 12.0 0.00 0.00 0.00 1014.9
20260505163416 0 16 4.0 12.0 0.00 0.00 0.00 1014.9
20260505162857 0 5 5.0 12.0 0.00 0.00 0.00 1015.0
20260505161904 0 341 4.0 12.0 0.00 0.00 0.00 1014.9
20260505160906 0 6 5.0 11.0 0.00 0.00 0.00 1014.8
20260505152924 0 32 2.0 11.0 0.00 0.00 0.00 1014.5
20260505152358 0 40 4.0 11.0 0.00 0.00 0.00 1014.5
20260505151405 0 43 2.0 10.0 0.00 0.00 0.00 1014.5
20260505150403 0 5 3.0 12.0 0.00 0.00 0.00 1014.4
20260505124400 0 52 5.0 9.0 0.00 0.00 0.00 1014.2
20260505123402 0 350 2.0 8.0 0.00 0.00 0.00 1014.1
20260505122406 0 333 4.0 10.0 0.00 0.00 0.00 1014.1
20260505121409 0 40 2.0 4.0 0.00 0.00 0.00 1014.2
20260505120410 0 36 2.0 6.0 0.00 0.00 0.00 1014.0
20260505115414 0 40 2.0 5.0 0.00 0.00 0.00 1014.1
20260505114416 0 341 2.0 5.0 0.00 0.00 0.00 1014.1
20260505113902 0 135 0.0 5.0 0.00 0.00 0.00 1014.2
20260505112858 0 30 2.0 6.0 0.00 0.00 0.00 1014.3
20260505111902 0 355 2.0 5.0 0.00 0.00 0.00 1014.4
20260505110909 0 320 0.0 4.0 0.00 0.00 0.00 1014.2
20260505101919 0 45 2.0 7.0 0.00 0.00 0.00 1014.3
20260505101356 0 76 1.0 4.0 0.00 0.00 0.00 1014.2
20260505100359 0 48 1.0 6.0 0.00 0.00 0.00 1014.2
20260505095405 0 21 0.0 7.0 0.00 0.00 0.00 1014.2
20260505094403 0 83 0.0 6.0 0.00 0.00 0.00 1014.2
20260505093406 0 101 1.0 4.0 0.00 0.00 0.00 1014.2
20260505092906 0 12 0.0 8.0 0.00 0.00 0.00 1014.1
20260505091906 0 183 1.0 5.0 0.00 0.00 0.00 1014.3
20260505090908 0 37 3.0 10.0 0.00 0.00 0.00 1014.2
20260505085910 0 34 2.0 6.0 0.00 0.00 0.00 1014.2
20260505084913 0 14 1.0 7.0 0.00 0.00 0.00 1014.2
20260505083916 0 51 1.0 4.0 0.00 0.00 0.00 1014.2
20260505083356 0 112 1.0 3.0 0.00 0.00 0.00 1014.1
20260505082417 0 333 2.0 4.0 0.00 0.00 0.00 1014.3
20260505081856 0 60 1.0 4.0 0.00 0.00 0.00 1014.3
20260505080905 0 169 0.0 5.0 0.00 0.00 0.00 1014.2
20260505075905 0 27 1.0 4.0 0.00 0.00 0.00 1014.5
20260505074906 0 39 3.0 6.0 0.00 0.00 0.00 1014.5
20260505073913 0 85 1.0 4.0 0.00 0.00 0.00 1014.4
20260505073410 0 78 1.0 4.0 0.00 0.00 0.00 1014.4
20260505072905 0 59 0.0 2.0 0.00 0.00 0.00 1014.3
20260505072301 0 99 0.0 2.0 0.00 0.00 0.00 1014.6
20260505070915 0 105 0.0 2.0 0.00 0.00 0.00 1014.5
20260505070400 0 187 0.0 2.0 0.00 0.00 0.00 1014.6
20260505065402 0 81 0.0 2.0 0.00 0.00 0.00 1014.6
20260505064410 0 81 0.0 3.0 0.00 0.00 0.00 1014.7
20260505063409 0 113 0.0 1.0 0.00 0.00 0.00 1014.9
20260505062413 0 168 0.0 3.0 0.00 0.00 0.00 1014.9
20260505061414 0 59 0.0 2.0 0.00 0.00 0.00 1014.8
20260505060416 0 168 0.0 2.0 0.00 0.00 0.00 1014.7
20260505055358 0 168 0.0 2.0 0.00 0.00 0.00 1014.8
20260505054401 0 168 0.0 1.0 0.00 0.00 0.00 1014.6
20260505053407 0 168 0.0 2.0 0.00 0.00 0.00 1014.6
20260505052405 0 168 0.0 0.0 0.00 0.00 0.00 1014.6
20260505051410 0 168 0.0 1.0 0.00 0.00 0.00 1014.6
20260505050411 0 168 0.0 2.0 0.00 0.00 0.00 1014.7
20260505040912 0 168 0.0 0.0 0.00 0.01 0.00 1014.4
20260505035914 0 168 0.0 1.0 0.00 0.01 0.00 1014.4
20260505034915 0 168 0.0 0.0 0.00 0.01 0.00 1014.5
20260505034356 0 168 0.0 0.0 0.00 0.01 0.00 1014.3
20260505033358 0 168 0.0 0.0 0.00 0.01 0.00 1014.3
20260505032857 0 168 0.0 1.0 0.00 0.01 0.00 1014.5
20260505031900 0 168 0.0 0.0 0.00 0.01 0.00 1014.4
20260505030902 0 168 0.0 0.0 0.00 0.01 0.00 1014.5
20260505025908 0 168 0.0 0.0 0.00 0.01 0.00 1014.5
20260505024905 0 168 0.0 0.0 0.00 0.01 0.00 1014.4
20260505023412 0 168 0.0 1.0 0.00 0.01 0.00 1014.6
20260505022912 0 168 0.0 1.0 0.00 0.01 0.00 1014.7
20260505022412 0 168 0.0 0.0 0.00 0.01 0.00 1014.7
20260505021859 0 168 0.0 1.0 0.00 0.01 0.00 1014.7
20260505020859 0 168 0.0 1.0 0.00 0.01 0.00 1014.7
20260505015901 0 175 0.0 1.0 0.00 0.01 0.00 1014.8
20260505014909 0 175 0.0 0.0 0.00 0.01 0.00 1014.9
20260505013904 0 175 0.0 2.0 0.00 0.01 0.00 1015.0